| time (UTC) | temp C | wind direction | speed KPH | gust KPH | rain 1hr cm | rain 24hr cm | rain mn cm | humidity % | barometer mb |
| 20260507153100 | 17 | 272 | 1.6 | 6.4 | 0.00 | 0.03 | 0.03 | 66 | 1016.9 |
| 20260507151603 | 17 | 330 | 1.6 | 6.4 | 0.00 | 0.03 | 0.03 | 64 | 1016.9 |
| 20260507150057 | 17 | 37 | 0.0 | 11.3 | 0.00 | 0.03 | 0.03 | 64 | 1017.0 |
| 20260507144612 | 17 | 311 | 1.6 | 9.7 | 0.00 | 0.03 | 0.03 | 61 | 1016.9 |
| 20260507143102 | 17 | 304 | 3.2 | 14.5 | 0.00 | 0.03 | 0.03 | 61 | 1016.9 |
| 20260507141600 | 17 | 282 | 0.0 | 9.7 | 0.00 | 0.03 | 0.03 | 61 | 1016.9 |
| 20260507140051 | 17 | 296 | 0.0 | 11.3 | 0.00 | 0.03 | 0.03 | 61 | 1017.0 |
| 20260507134554 | 17 | 336 | 1.6 | 12.9 | 0.00 | 0.03 | 0.03 | 63 | 1016.9 |
| 20260507133134 | 17 | 326 | 3.2 | 17.7 | 0.00 | 0.03 | 0.03 | 63 | 1017.0 |
| 20260507131548 | 17 | 329 | 3.2 | 17.7 | 0.00 | 0.03 | 0.03 | 61 | 1017.0 |
| 20260507130059 | 17 | 271 | 3.2 | 14.5 | 0.00 | 0.03 | 0.03 | 64 | 1017.0 |
| 20260507124549 | 17 | 351 | 6.4 | 17.7 | 0.00 | 0.03 | 0.03 | 62 | 1017.1 |
| 20260507123048 | 17 | 245 | 4.8 | 14.5 | 0.00 | 0.03 | 0.03 | 64 | 1017.2 |
| 20260507121544 | 17 | 301 | 3.2 | 12.9 | 0.00 | 0.03 | 0.03 | 64 | 1017.3 |
| 20260507120042 | 17 | 287 | 3.2 | 14.5 | 0.00 | 0.03 | 0.03 | 65 | 1017.4 |
| 20260507114552 | 17 | 334 | 8.0 | 16.1 | 0.00 | 0.03 | 0.03 | 67 | 1017.5 |
| 20260507113040 | 17 | 311 | 4.8 | 14.5 | 0.00 | 0.03 | 0.03 | 67 | 1017.6 |
| 20260507111538 | 17 | 331 | 3.2 | 9.7 | 0.00 | 0.03 | 0.03 | 68 | 1017.7 |
| 20260507110041 | 16 | 305 | 4.8 | 14.5 | 0.00 | 0.03 | 0.03 | 69 | 1017.9 |
| 20260507104535 | 16 | 283 | 4.8 | 16.1 | 0.00 | 0.03 | 0.03 | 70 | 1017.9 |
| 20260507103042 | 16 | 290 | 6.4 | 14.5 | 0.00 | 0.03 | 0.03 | 70 | 1018.0 |
| 20260507101537 | 16 | 308 | 3.2 | 12.9 | 0.00 | 0.03 | 0.03 | 71 | 1017.9 |
| 20260507100035 | 16 | 236 | 6.4 | 14.5 | 0.00 | 0.03 | 0.03 | 71 | 1017.9 |
| 20260507094534 | 16 | 250 | 3.2 | 14.5 | 0.00 | 0.03 | 0.03 | 74 | 1018.1 |
| 20260507093029 | 16 | 332 | 4.8 | 16.1 | 0.00 | 0.03 | 0.03 | 73 | 1018.3 |
| 20260507091531 | 15 | 280 | 3.2 | 16.1 | 0.00 | 0.03 | 0.03 | 74 | 1018.4 |
| 20260507090024 | 15 | 296 | 3.2 | 12.9 | 0.00 | 0.03 | 0.03 | 73 | 1018.5 |
| 20260507084524 | 15 | 287 | 4.8 | 16.1 | 0.00 | 0.05 | 0.03 | 74 | 1018.5 |
| 20260507083021 | 15 | 290 | 1.6 | 9.7 | 0.00 | 0.05 | 0.03 | 73 | 1018.7 |
| 20260507081520 | 15 | 259 | 3.2 | 9.7 | 0.00 | 0.05 | 0.03 | 74 | 1018.8 |
| 20260507080019 | 14 | 299 | 4.8 | 11.3 | 0.00 | 0.05 | 0.03 | 75 | 1018.8 |
| 20260507074518 | 14 | 301 | 4.8 | 12.9 | 0.00 | 0.05 | 0.03 | 74 | 1018.8 |
| 20260507073018 | 15 | 310 | 3.2 | 9.7 | 0.00 | 0.05 | 0.03 | 69 | 1018.5 |
| 20260507071518 | 15 | 232 | 1.6 | 6.4 | 0.00 | 0.05 | 0.03 | 69 | 1018.7 |
| 20260507070020 | 14 | 283 | 1.6 | 12.9 | 0.00 | 0.05 | 0.03 | 67 | 1018.7 |
| 20260507064513 | 13 | 43 | 1.6 | 6.4 | 0.00 | 0.05 | 0.03 | 70 | 1018.9 |
| 20260507063007 | 13 | 352 | 1.6 | 11.3 | 0.00 | 0.05 | 0.03 | 74 | 1018.8 |
| 20260507061502 | 12 | 353 | 1.6 | 8.0 | 0.00 | 0.05 | 0.03 | 81 | 1018.8 |
| 20260507060100 | 12 | 285 | 3.2 | 8.0 | 0.00 | 0.05 | 0.03 | 81 | 1018.8 |
| 20260507054558 | 11 | 288 | 0.0 | 4.8 | 0.00 | 0.05 | 0.03 | 80 | 1018.7 |
| 20260507053107 | 11 | 307 | 0.0 | 4.8 | 0.00 | 0.05 | 0.03 | 83 | 1018.5 |
| 20260507051550 | 11 | 295 | 0.0 | 4.8 | 0.00 | 0.05 | 0.03 | 88 | 1018.2 |
| 20260507050046 | 10 | 299 | 0.0 | 3.2 | 0.00 | 0.05 | 0.03 | 91 | 1018.2 |
| 20260507044556 | 9 | 18 | 0.0 | 3.2 | 0.00 | 0.05 | 0.03 | 94 | 1018.1 |
| 20260507043038 | 8 | 342 | 0.0 | 3.2 | 0.00 | 0.05 | 0.03 | 95 | 1018.1 |
| 20260507041544 | 8 | 58 | 0.0 | 3.2 | 0.00 | 0.05 | 0.03 | 95 | 1017.9 |
| 20260507040042 | 8 | 31 | 0.0 | 3.2 | 0.00 | 0.05 | 0.03 | 95 | 1017.8 |
| 20260507034541 | 8 | 100 | 0.0 | 12.9 | 0.00 | 0.05 | 0.03 | 95 | 1017.6 |
| 20260507033044 | 7 | 76 | 0.0 | 1.6 | 0.03 | 0.05 | 0.03 | 95 | 1017.6 |
| 20260507031550 | 7 | 92 | 0.0 | 1.6 | 0.03 | 0.05 | 0.03 | 95 | 1017.4 |
| 20260507030038 | 7 | 92 | 0.0 | 1.6 | 0.03 | 0.05 | 0.03 | 95 | 1017.2 |
| 20260507024534 | 7 | 92 | 0.0 | 1.6 | 0.03 | 0.05 | 0.03 | 95 | 1017.3 |
| 20260507023031 | 7 | 45 | 0.0 | 3.2 | 0.00 | 0.03 | 0.00 | 95 | 1017.2 |
| 20260507021533 | 7 | 40 | 0.0 | 1.6 | 0.00 | 0.03 | 0.00 | 95 | 1017.2 |
| 20260507020029 | 7 | 40 | 0.0 | 0.0 | 0.00 | 0.03 | 0.00 | 95 | 1017.3 |
| 20260507014539 | 7 | 40 | 0.0 | 0.0 | 0.00 | 0.03 | 0.00 | 95 | 1017.3 |
| 20260507013034 | 8 | 40 | 0.0 | 1.6 | 0.00 | 0.03 | 0.00 | 95 | 1017.3 |
| 20260507011531 | 8 | 40 | 0.0 | 1.6 | 0.00 | 0.03 | 0.00 | 95 | 1017.3 |
| 20260507010027 | 8 | 40 | 0.0 | 3.2 | 0.00 | 0.03 | 0.00 | 95 | 1017.2 |
| 20260507004522 | 8 | 39 | 0.0 | 1.6 | 0.00 | 0.03 | 0.00 | 95 | 1017.2 |
| 20260507003021 | 8 | 94 | 0.0 | 3.2 | 0.00 | 0.03 | 0.00 | 95 | 1017.3 |
| 20260507001525 | 8 | 261 | 0.0 | 0.0 | 0.00 | 0.03 | 0.00 | 95 | 1017.3 |
| 20260507000019 | 8 | 41 | 0.0 | 3.2 | 0.00 | 0.03 | 0.00 | 95 | 1017.2 |
| 20260506234517 | 8 | 45 | 0.0 | 1.6 | 0.00 | 0.03 | 0.00 | 95 | 1017.4 |
| 20260506233017 | 8 | 32 | 0.0 | 3.2 | 0.00 | 0.03 | 0.00 | 95 | 1017.4 |
| 20260506231515 | 8 | 48 | 0.0 | 1.6 | 0.00 | 0.03 | 0.00 | 95 | 1017.3 |
| 20260506230013 | 8 | 38 | 0.0 | 3.2 | 0.00 | 0.03 | 0.00 | 95 | 1017.5 |
| 20260506224513 | 8 | 43 | 0.0 | 0.0 | 0.00 | 0.03 | 0.00 | 95 | 1017.5 |
| 20260506223016 | 8 | 43 | 0.0 | 1.6 | 0.00 | 0.03 | 0.00 | 95 | 1017.6 |
| 20260506221508 | 8 | 43 | 0.0 | 0.0 | 0.00 | 0.03 | 0.00 | 95 | 1017.8 |
| 20260506220007 | 8 | 43 | 0.0 | 0.0 | 0.00 | 0.03 | 0.00 | 95 | 1017.9 |
| 20260506214505 | 8 | 43 | 0.0 | 3.2 | 0.00 | 0.03 | 0.00 | 95 | 1018.0 |
| 20260506213003 | 8 | 38 | 0.0 | 0.0 | 0.00 | 0.03 | 0.00 | 95 | 1017.9 |
| 20260506211558 | 8 | 38 | 0.0 | 0.0 | 0.00 | 0.03 | 0.00 | 95 | 1018.1 |
| 20260506210054 | 8 | 38 | 0.0 | 1.6 | 0.00 | 0.03 | 0.00 | 95 | 1018.2 |
| 20260506204553 | 8 | 36 | 0.0 | 0.0 | 0.00 | 0.03 | 0.03 | 94 | 1018.2 |
| 20260506203053 | 8 | 36 | 0.0 | 0.0 | 0.00 | 0.03 | 0.03 | 94 | 1018.3 |
| 20260506201555 | 8 | 36 | 0.0 | 0.0 | 0.00 | 0.03 | 0.03 | 94 | 1018.3 |
| 20260506200051 | 8 | 36 | 0.0 | 0.0 | 0.00 | 0.03 | 0.03 | 94 | 1018.3 |
| 20260506194552 | 8 | 36 | 0.0 | 0.0 | 0.00 | 0.10 | 0.03 | 94 | 1018.3 |
| 20260506193050 | 8 | 36 | 0.0 | 0.0 | 0.00 | 0.10 | 0.03 | 93 | 1018.1 |
| 20260506191549 | 8 | 36 | 0.0 | 0.0 | 0.00 | 0.10 | 0.03 | 93 | 1018.2 |
| 20260506190052 | 8 | 36 | 0.0 | 0.0 | 0.00 | 0.10 | 0.03 | 93 | 1018.2 |
| 20260506184551 | 9 | 36 | 0.0 | 0.0 | 0.00 | 0.10 | 0.03 | 93 | 1018.1 |
| 20260506183049 | 9 | 311 | 0.0 | 0.0 | 0.00 | 0.10 | 0.03 | 92 | 1018.1 |
| 20260506181545 | 9 | 311 | 0.0 | 0.0 | 0.00 | 0.10 | 0.03 | 92 | 1018.1 |
| 20260506180047 | 9 | 311 | 0.0 | 0.0 | 0.00 | 0.10 | 0.03 | 91 | 1017.9 |
| 20260506174543 | 10 | 311 | 0.0 | 0.0 | 0.00 | 0.10 | 0.03 | 91 | 1017.9 |
| 20260506173115 | 10 | 311 | 0.0 | 0.0 | 0.00 | 0.10 | 0.03 | 90 | 1017.8 |
| 20260506171541 | 10 | 311 | 0.0 | 0.0 | 0.00 | 0.10 | 0.03 | 90 | 1017.7 |
| 20260506170041 | 10 | 311 | 0.0 | 1.6 | 0.00 | 0.10 | 0.03 | 89 | 1017.6 |
| 20260506164541 | 10 | 311 | 0.0 | 0.0 | 0.00 | 0.13 | 0.03 | 88 | 1017.5 |
| 20260506163041 | 11 | 311 | 0.0 | 1.6 | 0.00 | 0.13 | 0.03 | 86 | 1017.5 |
| 20260506161539 | 11 | 320 | 0.0 | 4.8 | 0.00 | 0.13 | 0.03 | 84 | 1017.3 |
| 20260506160038 | 12 | 255 | 0.0 | 3.2 | 0.00 | 0.13 | 0.03 | 83 | 1017.4 |
| 20260506154537 | 12 | 299 | 0.0 | 6.4 | 0.00 | 0.13 | 0.03 | 82 | 1017.3 |